Weather in Phoenix

United States     33°34′11″N   112°03′52″W
temp.,
°C
wind,
m/s
gust,
m/s
humid.,
%
clouds,
%
prec.,
mm/h
press.,
hPa
HPBL,
m
18 may, tue
tue1823:00+27sw58191 0.0 1008638
02:00+25wsw610250 0.0 1009566
05:00+23w46300 0.0 1009413
08:00+24sw23265 0.0 1010678
11:00+28wsw35232 0.0 10091295
14:00+33w671897 0.0 10062915
17:00+34wsw781727 0.0 10043384
20:00+32sw79172 0.0 10041196
19 may, wed
wed1923:00+28wsw813274 0.0 1006715
02:00+27wnw37270 0.0 1007566
05:00+26wsw23280 0.0 1007326
08:00+27sse22250 0.0 1009581
11:00+30s23190 0.0 10081378
14:00+34s06130 0.0 10042796
17:00+37wsw98100 0.0 10023881
20:00+33sw810130 0.0 10031190
20 may, thu
thu2023:00+29sw59194 0.0 1005581
02:00+28sse23217 0.0 1005502
05:00+26sse3423100 0.0 1006383
08:00+27s33220 0.0 1007695
11:00+31ssw371255 0.0 10061783
14:00+35wsw899100 0.0 10043241
17:00+36sw910894 0.0 10013599
20:00+31wsw91115100 0.0 10031334
21 may, fri
fri2123:00+28sw7918100 0.0 1005707
02:00+26wsw4517100 0.0 1006696
05:00+25ssw341880 0.0 1006694
08:00+25sw241324 0.0 1008622
11:00+28wsw5770 0.0 10091848
14:00+30wsw7990 0.0 10072514
17:00+30wsw8980 0.0 10062192
20:00+27wsw8970 0.0 10081343
22 may, sat
sat2223:00+25w4680 0.0 1010562
02:00+22wsw46110 0.0 1011367
05:00+20w23170 0.0 1012352
08:00+21ssw11160 0.0 1014721
11:00+25s34110 0.0 10121355
14:00+29w4780 0.0 10093022
17:00+29wsw91060 0.0 10082601
20:00+26w6870 0.0 10101995